TimeMST,TemperatureF,Dew PointF,Humidity,Sea Level PressureIn,VisibilityMPH,Wind Direction,Wind SpeedMPH,Gust SpeedMPH,PrecipitationIn,Events,Conditions,WindDirDegrees,DateUTC
12:53 AM,19.0,3.9,52,30.28,10.0,West,3.5,-,N/A,,Clear,270,2014-01-13 07:53:00
1:53 AM,14.0,3.0,62,30.35,10.0,WSW,5.8,-,N/A,,Clear,240,2014-01-13 08:53:00
2:53 AM,12.9,1.9,62,30.39,10.0,Calm,Calm,-,N/A,,Clear,0,2014-01-13 09:53:00
3:53 AM,15.1,3.9,61,30.40,10.0,SW,3.5,-,N/A,,Clear,220,2014-01-13 10:53:00
4:53 AM,10.9,1.9,67,30.46,10.0,Calm,Calm,-,N/A,,Clear,0,2014-01-13 11:53:00
5:53 AM,9.0,-0.0,67,30.53,10.0,Calm,Calm,-,N/A,,Clear,0,2014-01-13 12:53:00
6:53 AM,10.9,1.9,67,30.55,10.0,Calm,Calm,-,N/A,,Clear,0,2014-01-13 13:53:00
7:53 AM,9.0,-0.0,67,30.62,10.0,NE,3.5,-,N/A,,Clear,50,2014-01-13 14:53:00
8:53 AM,19.9,6.1,55,30.60,10.0,Calm,Calm,-,N/A,,Clear,0,2014-01-13 15:53:00
9:53 AM,28.0,8.1,43,30.58,10.0,WNW,3.5,-,N/A,,Clear,300,2014-01-13 16:53:00
10:53 AM,37.0,9.0,31,30.51,10.0,SW,6.9,-,N/A,,Clear,230,2014-01-13 17:53:00
11:53 AM,41.0,9.0,27,30.43,10.0,Variable,5.8,-,N/A,,Clear,0,2014-01-13 18:53:00
12:53 PM,48.0,10.0,22,30.32,10.0,West,16.1,-,N/A,,Clear,270,2014-01-13 19:53:00
1:53 PM,48.9,10.0,21,30.33,10.0,West,15.0,-,N/A,,Clear,280,2014-01-13 20:53:00
2:53 PM,48.0,9.0,21,30.35,10.0,West,19.6,-,N/A,,Clear,270,2014-01-13 21:53:00
3:53 PM,46.9,10.0,22,30.36,10.0,West,18.4,-,N/A,,Clear,280,2014-01-13 22:53:00
4:53 PM,45.0,10.0,24,30.41,10.0,WNW,13.8,-,N/A,,Clear,300,2014-01-13 23:53:00
5:53 PM,39.9,9.0,28,30.45,10.0,NW,9.2,-,N/A,,Clear,310,2014-01-14 00:53:00
6:53 PM,32.0,8.1,37,30.53,10.0,Calm,Calm,-,N/A,,Clear,0,2014-01-14 01:53:00
7:53 PM,28.0,8.1,43,30.58,10.0,South,3.5,-,N/A,,Clear,170,2014-01-14 02:53:00
8:53 PM,21.9,6.1,51,30.56,10.0,NE,4.6,-,N/A,,Clear,50,2014-01-14 03:53:00
9:53 PM,17.1,3.9,56,30.55,10.0,Calm,Calm,-,N/A,,Clear,0,2014-01-14 04:53:00
10:53 PM,19.0,6.1,57,30.47,10.0,Calm,Calm,-,N/A,,Clear,0,2014-01-14 05:53:00
11:53 PM,18.0,5.0,57,30.41,10.0,Calm,Calm,-,N/A,,Clear,0,2014-01-14 06:53:00